Weather reports worldwide

Advertisment
Hoherodskopf/Vogelsberg, Germany (10534): temperature & dewpoint: 20.09.2020 14:00:00 - 26.09.2020 14:00:00 (CEST)Hoherodskopf/Vogelsberg, Germany (10534): temperature 5cm & temperature -5cm: 20.09.2020 14:00:00 - 26.09.2020 14:00:00 (CEST)Hoherodskopf/Vogelsberg, Germany (10534): temperature -20cm & temperature -100cm: 20.09.2020 14:00:00 - 26.09.2020 14:00:00 (CEST)Hoherodskopf/Vogelsberg, Germany (10534): wind speed & gusts: 20.09.2020 14:00:00 - 26.09.2020 14:00:00 (CEST)Hoherodskopf/Vogelsberg, Germany (10534): wind direction: 20.09.2020 14:00:00 - 26.09.2020 14:00:00 (CEST)Hoherodskopf/Vogelsberg, Germany (10534): reduced air pressure: 20.09.2020 14:00:00 - 26.09.2020 14:00:00 (CEST)Hoherodskopf/Vogelsberg, Germany (10534): visibility: 20.09.2020 14:00:00 - 26.09.2020 14:00:00 (CEST)Hoherodskopf/Vogelsberg, Germany (10534): sunshine duration: 20.09.2020 14:00:00 - 26.09.2020 14:00:00 (CEST)Hoherodskopf/Vogelsberg, Germany (10534): precipitation: 20.09.2020 14:00:00 - 26.09.2020 14:00:00 (CEST)
Date & Time tt [°C] td [°C] tt 5cm [°C] tt -5cm [°C] tt -20cm [°C] tt -100cm [°C] ff [km/h] ff [kn] fx [km/h] fx [kn] dd ppp [hPa] vv [km] sd [min] rr [mm]
26.09.2020 14:00:00 - - - - - - - - - - - - - - -
26.09.2020 13:00:00 5,5 5,5 7,7 9,8 11,7 14,4 9 5 13 7 SW 997,8 1,4 0 0,4
26.09.2020 12:00:00 5,0 5,0 6,7 8,9 11,8 14,4 9 5 18 10 S 997,7 0,2 0 0,2
26.09.2020 11:00:00 4,5 4,5 5,5 8,1 11,9 14,4 13 7 26 14 SSW 997,7 0,1 0 0,1
26.09.2020 10:00:00 4,0 3,9 4,7 7,6 12,0 14,4 17 9 31 17 SSW 997,5 0,1 0 0,0
26.09.2020 09:00:00 3,9 3,8 4,3 7,5 12,2 14,4 17 9 31 17 SSW 997,8 0,2 0 0,0
26.09.2020 08:00:00 4,1 4,0 4,4 7,7 12,3 14,4 19 10 37 20 SSW 997,9 0,2 0 0,2
26.09.2020 07:00:00 4,5 4,4 4,7 7,8 12,4 14,4 22 12 35 19 SSW 997,9 0,1 0 0,2
26.09.2020 06:00:00 4,7 4,6 4,9 8,0 12,6 14,5 21 11 36 19 SW 997,7 0,1 0 0,1
26.09.2020 05:00:00 4,8 4,8 5,0 8,2 12,7 14,4 19 10 34 18 SW 997,9 0,1 0 0,6
26.09.2020 04:00:00 4,9 4,7 5,2 8,5 12,8 14,5 20 11 37 20 SW 998,2 0,1 0 0,3
26.09.2020 03:00:00 5,1 5,0 5,4 8,7 13,0 14,5 21 12 34 18 SSW 998,8 0,1 0 0,0
26.09.2020 02:00:00 5,2 5,1 5,5 8,8 13,1 14,5 18 10 28 15 SW 998,9 0,2 0 0,0
26.09.2020 01:00:00 5,3 5,1 5,5 9,0 13,2 14,5 16 9 24 13 SW 999,2 0,2 0 0,0
26.09.2020 00:00:00 5,5 5,4 5,8 9,2 13,4 14,5 13 7 26 14 SW 999,1 0,1 0 0,3
25.09.2020 23:00:00 5,5 5,4 5,8 9,3 13,5 14,5 16 9 28 15 SW 999,3 0,1 0 0,1
25.09.2020 22:00:00 6,0 5,7 6,2 9,5 13,7 14,5 16 9 26 14 S 999,7 1,3 0 0,0
25.09.2020 21:00:00 6,3 5,2 6,0 9,7 13,8 14,5 16 8 23 12 S 999,0 44 0 0,0
25.09.2020 20:00:00 6,3 5,0 6,4 10,0 13,9 14,5 15 8 26 14 SSE 999,2 46 0 0,0
25.09.2020 19:00:00 6,7 4,6 6,8 10,5 14,0 14,5 17 9 28 15 S 999,0 44 0 0,0
25.09.2020 18:00:00 6,8 4,7 7,2 11,0 14,1 14,5 20 11 34 18 S 999,0 40 0 0,0
25.09.2020 17:00:00 7,0 5,1 7,7 11,2 14,2 14,5 18 10 36 19 S 999,0 52 0 0,0
25.09.2020 16:00:00 6,9 4,7 7,6 11,6 14,3 14,5 23 12 38 20 SSW 999,4 45 0 0,0
25.09.2020 15:00:00 6,9 4,8 8,1 11,5 14,4 14,5 22 12 38 20 SSW 999,5 40 0 0,0
25.09.2020 14:00:00 5,9 5,4 6,8 11,7 14,4 14,5 25 13 41 22 SSW 1000,0 22 0 0,0
25.09.2020 13:00:00 6,6 4,3 7,3 12,5 14,5 14,5 22 12 38 21 SSW 1000,3 57 9 0,0
25.09.2020 12:00:00 6,3 4,5 7,5 12,3 14,6 14,5 26 14 39 21 SW 1000,4 52 16 0,0
25.09.2020 11:00:00 6,3 5,6 7,6 11,1 14,8 14,5 22 12 37 20 WSW 1000,4 45 1 0,0
25.09.2020 10:00:00 6,2 6,1 7,1 10,8 15,0 14,5 25 13 44 24 SW 999,9 1,4 0 0,0
25.09.2020 09:00:00 6,4 6,3 6,9 10,8 15,2 14,5 28 15 44 24 SW 999,9 0,1 0 0,0
25.09.2020 08:00:00 6,7 6,5 7,0 11,0 15,4 14,5 23 13 38 20 SW 999,5 0,1 0 0,0
25.09.2020 07:00:00 6,7 6,5 6,9 11,5 15,6 14,5 18 10 46 25 WSW 999,2 0,1 0 1,1
25.09.2020 06:00:00 7,1 6,8 7,2 12,3 15,8 14,5 15 8 58 31 WSW 999,2 21 0 1,2
25.09.2020 05:00:00 9,8 9,7 10,0 13,0 15,9 14,5 29 16 59 32 SW 998,2 0,3 0 0,1
25.09.2020 04:00:00 9,9 9,7 10,1 13,1 16,1 14,5 24 13 41 22 S 998,9 0,1 0 0,1
25.09.2020 03:00:00 9,9 9,7 10,0 13,3 16,3 14,4 28 15 41 22 S 999,2 0,2 0 0,0
25.09.2020 02:00:00 9,9 9,6 10,0 13,5 16,5 14,4 23 12 37 20 S 1000,1 0,5 0 0,0
25.09.2020 01:00:00 10,5 9,0 10,0 13,8 16,7 14,4 23 12 38 20 S 1000,5 62 0 0,0
25.09.2020 00:00:00 10,6 9,0 9,9 14,3 16,8 14,4 24 13 35 19 SSE 1000,6 56 0 0,2
24.09.2020 23:00:00 10,6 10,3 10,6 14,9 17,0 14,4 16 9 29 16 SE 1002,4 1,9 0 0,8
24.09.2020 22:00:00 10,9 9,9 10,6 15,4 17,1 14,4 11 6 30 16 S 1003,2 21 0 0,6
24.09.2020 21:00:00 12,3 8,7 12,1 16,1 17,1 14,4 16 8 24 13 S 1003,5 45 0 0,0
24.09.2020 20:00:00 12,8 8,3 12,7 16,7 17,2 14,4 18 10 31 17 S 1003,6 64 0 0,0
24.09.2020 19:00:00 12,9 7,5 13,0 17,4 17,1 14,4 23 12 37 20 S 1003,9 56 0 0,0
24.09.2020 18:00:00 13,1 7,2 13,8 18,2 17,0 14,4 23 12 48 26 S 1004,3 71 8 0,0
24.09.2020 17:00:00 13,5 6,8 14,5 18,8 16,8 14,4 28 15 45 24 S 1004,9 71 2 0,0
24.09.2020 16:00:00 13,8 6,0 14,7 19,6 16,6 14,4 21 11 43 23 SSW 1005,4 56 14 0,0
24.09.2020 15:00:00 13,9 4,6 16,7 19,8 16,4 14,4 31 17 46 25 SW 1005,8 67 48 0,0
24.09.2020 14:00:00 13,5 4,1 17,3 19,8 16,3 14,4 31 17 45 24 S 1006,1 57 60 0,0
24.09.2020 13:00:00 14,0 6,4 19,0 17,9 16,3 14,4 21 11 34 18 SW 1006,3 75 45 0,0
24.09.2020 12:00:00 11,9 7,3 16,5 16,1 16,3 14,4 21 11 31 17 SW 1007,1 71 32 0,0
24.09.2020 11:00:00 9,8 7,6 11,4 14,9 16,5 14,4 20 11 38 20 W 1007,7 60 17 0,0
24.09.2020 10:00:00 9,4 6,8 10,5 14,2 16,6 14,4 23 13 38 21 W 1007,2 56 8 0,0
24.09.2020 09:00:00 9,8 7,1 9,4 14,3 16,8 14,4 24 13 46 25 W 1006,4 61 0 0,1
24.09.2020 08:00:00 11,9 11,6 12,0 14,5 16,9 14,4 26 14 46 25 SW 1004,4 0,1 0 0,0
24.09.2020 07:00:00 12,1 11,2 11,9 14,7 17,1 14,4 27 14 42 23 SSW 1004,0 20 0 0,0
24.09.2020 06:00:00 12,5 10,6 11,9 14,8 17,3 14,4 23 13 35 19 SSW 1003,5 33 0 0,0
24.09.2020 05:00:00 12,3 10,9 11,8 15,0 17,5 14,4 21 12 38 21 S 1003,5 26 0 0,3
24.09.2020 04:00:00 13,3 9,7 13,1 15,1 17,7 14,4 22 12 39 21 S 1003,5 46 0 0,0
24.09.2020 03:00:00 13,2 9,6 12,2 15,3 17,9 14,4 22 12 34 18 S 1004,0 40 0 0,0
24.09.2020 02:00:00 13,2 9,6 11,9 15,7 18,1 14,4 22 12 32 17 S 1004,6 43 0 0,0
24.09.2020 01:00:00 13,5 9,8 12,7 16,1 18,3 14,4 21 12 31 17 S 1005,0 43 0 0,0
24.09.2020 00:00:00 13,8 9,6 12,6 16,5 18,5 14,4 21 11 29 16 S 1005,2 43 0 0,0
23.09.2020 23:00:00 13,8 9,6 12,8 17,1 18,7 14,4 18 10 27 15 S 1005,8 39 0 0,0
23.09.2020 22:00:00 14,3 9,6 13,1 17,8 18,9 14,4 18 10 27 15 S 1005,7 42 0 0,0
23.09.2020 21:00:00 14,8 9,4 13,7 18,7 18,9 14,4 22 12 34 19 SSW 1005,7 46 0 0,0
23.09.2020 20:00:00 15,2 9,1 13,9 20,0 18,9 14,4 18 10 26 14 S 1005,6 41 0 0,0
23.09.2020 19:00:00 16,2 8,8 15,3 21,6 18,7 14,4 16 9 36 19 S 1005,5 45 50 0,0
23.09.2020 18:00:00 17,6 8,4 19,0 23,1 18,4 14,4 21 11 44 24 SSW 1005,1 41 60 0,0
23.09.2020 17:00:00 18,2 9,2 21,2 24,1 18,0 14,4 23 12 36 19 SSW 1005,4 48 59 0,0
23.09.2020 16:00:00 17,6 8,5 20,0 24,2 17,6 14,4 22 12 32 18 SSW 1006,0 45 33 0,0
23.09.2020 15:00:00 18,4 8,0 22,5 24,5 17,2 14,4 17 9 33 18 SSW 1006,0 42 44 0,0
23.09.2020 14:00:00 18,2 8,2 24,9 23,7 16,9 14,4 17 9 26 14 WSW 1006,3 35 60 0,0
23.09.2020 13:00:00 18,5 7,5 24,7 21,8 16,8 14,4 14 8 23 13 WSW 1006,4 42 60 0,0
23.09.2020 12:00:00 16,4 8,3 22,2 19,4 16,7 14,4 13 7 20 11 SW 1007,2 30 60 0,0
23.09.2020 11:00:00 15,5 10,0 20,7 16,8 16,8 14,4 6 4 12 6 SW 1007,2 40 33 0,0
23.09.2020 10:00:00 13,4 11,1 14,6 15,4 16,9 14,4 10 5 16 9 SSW 1007,7 24 0 0,0
23.09.2020 09:00:00 13,2 11,1 13,2 15,0 17,1 14,4 10 5 18 10 SSW 1007,6 24 0 0,0
23.09.2020 08:00:00 13,8 10,3 13,0 15,0 17,2 14,4 6 4 13 7 SSW 1007,2 29 0 0,0
23.09.2020 07:00:00 14,4 9,2 13,0 15,2 17,4 14,4 7 4 15 8 SSW 1006,8 42 0 0,0
23.09.2020 06:00:00 14,4 10,1 13,1 15,5 17,6 14,4 7 4 16 9 S 1006,8 30 0 0,1
23.09.2020 05:00:00 15,8 9,4 14,0 15,8 17,7 14,4 10 6 16 9 SW 1006,7 41 0 0,0
23.09.2020 04:00:00 15,0 10,0 12,6 16,1 17,9 14,4 7 4 16 9 WSW 1007,2 34 0 0,1
23.09.2020 03:00:00 16,1 8,9 14,7 16,2 18,1 14,4 7 4 13 7 S 1007,1 43 0 0,0
23.09.2020 02:00:00 16,3 8,5 14,2 16,5 18,3 14,4 10 5 22 12 SSW 1007,4 46 0 0,0
23.09.2020 01:00:00 17,3 8,3 15,3 16,8 18,6 14,4 15 8 22 12 SSW 1007,2 47 0 0,0
23.09.2020 00:00:00 17,6 7,8 15,3 17,3 18,8 14,4 14 8 20 11 S 1007,3 49 0 0,0
22.09.2020 23:00:00 17,8 6,8 15,1 17,9 18,9 14,4 14 8 18 10 SSE 1007,7 51 0 0,0
22.09.2020 22:00:00 18,1 6,3 15,1 18,6 19,1 14,4 12 6 16 8 S 1007,9 43 0 0,0
22.09.2020 21:00:00 18,3 6,8 15,4 19,7 19,1 14,4 11 6 16 9 S 1007,9 50 0 0,0
22.09.2020 20:00:00 17,9 6,0 15,3 21,2 18,9 14,4 11 6 17 9 S 1008,0 55 9 0,0
22.09.2020 19:00:00 19,0 6,0 18,2 23,0 18,6 14,4 14 7 26 14 SSW 1007,8 52 60 0,0
22.09.2020 18:00:00 19,9 8,5 21,8 24,4 18,2 14,4 14 7 29 16 SSW 1007,9 53 60 0,0
22.09.2020 17:00:00 20,4 9,4 24,0 25,3 17,8 14,4 16 9 29 16 S 1008,6 56 60 0,0
22.09.2020 16:00:00 20,6 8,9 25,5 25,6 17,3 14,4 16 8 35 19 S 1009,1 49 60 0,0
22.09.2020 15:00:00 20,6 7,8 25,9 25,3 16,8 14,4 19 10 28 15 S 1009,5 40 60 0,0
22.09.2020 14:00:00 20,7 7,1 26,5 24,2 16,4 14,4 14 8 22 12 S 1009,9 75 60 0,0
22.09.2020 13:00:00 19,9 8,4 26,0 22,3 16,2 14,4 11 6 18 10 W 1010,3 58 60 0,0
22.09.2020 12:00:00 19,2 9,5 25,5 20,1 16,1 14,4 11 6 19 10 W 1010,8 55 60 0,0
22.09.2020 11:00:00 18,3 7,9 23,8 17,7 16,1 14,4 6 3 11 6 WSW 1011,6 48 60 0,0
22.09.2020 10:00:00 17,8 7,2 20,9 15,1 16,3 14,4 4 2 7 4 WSW 1011,9 52 60 0,0
22.09.2020 09:00:00 17,0 5,1 18,2 13,4 16,5 14,4 3 1 5 3 W 1012,1 52 60 0,0
22.09.2020 08:00:00 15,4 8,8 11,3 13,1 16,7 14,4 4 2 6 3 NW 1012,4 47 2 0,0
22.09.2020 07:00:00 15,0 8,8 10,1 13,4 16,9 14,4 5 3 9 5 WNW 1012,3 45 0 0,0
22.09.2020 06:00:00 15,1 8,8 9,9 13,8 17,1 14,4 6 3 8 4 W 1012,5 43 0 0,0
22.09.2020 05:00:00 15,6 9,3 11,0 14,3 17,4 14,4 7 4 10 6 SSW 1012,5 40 0 0,0
22.09.2020 04:00:00 15,9 9,4 12,2 14,8 17,6 14,4 10 5 17 9 S 1012,7 42 0 0,0
22.09.2020 03:00:00 16,4 8,5 13,8 15,2 17,8 14,5 14 7 18 10 SSE 1012,9 56 0 0,0
22.09.2020 02:00:00 16,3 7,7 13,5 15,5 18,1 14,5 12 7 16 9 SE 1013,5 52 0 0,0
22.09.2020 01:00:00 16,6 6,8 13,7 16,0 18,3 14,5 10 6 14 8 SSE 1013,8 56 0 0,0
22.09.2020 00:00:00 16,8 6,2 13,7 16,7 18,6 14,5 11 6 15 8 SSE 1014,1 55 0 0,0
21.09.2020 23:00:00 16,6 6,4 13,7 17,4 18,8 14,5 10 5 14 8 SE 1014,5 56 0 0,0
21.09.2020 22:00:00 17,2 6,5 13,9 18,2 18,9 14,5 8 4 11 6 ESE 1014,2 61 0 0,0
21.09.2020 21:00:00 17,2 6,0 12,1 19,5 18,9 14,5 6 4 8 5 E 1014,2 43 0 0,0
21.09.2020 20:00:00 17,2 6,5 12,2 21,4 18,7 14,5 3 2 9 5 S 1014,2 57 18 0,0
21.09.2020 19:00:00 18,6 5,8 17,9 23,4 18,3 14,5 6 3 13 7 SE 1013,9 56 60 0,0
21.09.2020 18:00:00 19,3 5,8 21,7 25,1 17,9 14,5 10 6 16 9 SSE 1013,8 75 60 0,0
21.09.2020 17:00:00 20,7 6,7 25,0 26,0 17,4 14,5 6 3 16 9 SW 1013,5 58 60 0,0
21.09.2020 16:00:00 21,1 7,9 26,7 26,1 16,8 14,5 7 4 19 11 S 1013,6 49 60 0,0
21.09.2020 15:00:00 20,1 6,7 28,7 25,5 16,3 14,5 8 4 18 10 NW 1014,1 64 60 0,0
21.09.2020 14:00:00 19,2 6,9 26,5 24,2 15,9 14,5 9 5 18 10 W 1014,7 38 60 0,0
21.09.2020 13:00:00 19,2 7,1 25,6 22,1 15,6 14,5 6 4 16 9 SSW 1014,7 75 60 0,0
21.09.2020 12:00:00 18,1 6,5 23,7 19,4 15,5 14,5 6 4 16 9 SE 1015,3 61 60 0,0
21.09.2020 11:00:00 17,5 6,2 21,4 16,8 15,6 14,5 8 4 17 9 E 1015,6 66 60 0,0
21.09.2020 10:00:00 16,7 6,0 18,9 14,3 15,7 14,5 9 5 19 10 E 1015,7 62 60 0,0
21.09.2020 09:00:00 15,6 6,1 16,3 12,5 15,9 14,5 8 5 18 10 E 1015,9 60 60 0,0
21.09.2020 08:00:00 13,8 4,8 11,0 12,3 16,1 14,5 7 4 16 9 E 1016,3 59 7 0,0
21.09.2020 07:00:00 13,4 4,3 10,7 12,5 16,4 14,5 9 5 18 10 ENE 1016,0 64 0 0,0
21.09.2020 06:00:00 13,2 4,0 11,1 12,9 16,6 14,5 13 7 19 10 NE 1016,3 57 0 0,0
21.09.2020 05:00:00 13,4 4,0 11,3 13,3 16,8 14,5 10 5 19 10 ENE 1016,2 65 0 0,0
21.09.2020 04:00:00 13,7 3,7 11,1 13,7 17,1 14,5 10 5 20 11 ENE 1016,3 61 0 0,0
21.09.2020 03:00:00 13,5 4,4 11,2 14,2 17,3 14,5 10 5 20 11 ENE 1016,8 64 0 0,0
21.09.2020 02:00:00 13,8 4,4 12,1 14,7 17,6 14,5 12 7 26 14 ENE 1016,9 62 0 0,0
21.09.2020 01:00:00 13,8 4,2 12,1 15,3 17,8 14,5 15 8 27 15 ENE 1016,9 60 0 0,0
21.09.2020 00:00:00 14,0 3,9 12,4 15,9 18,0 14,5 14 8 34 19 ENE 1016,9 72 0 0,0
20.09.2020 23:00:00 14,6 4,3 13,0 16,6 18,2 14,5 14 8 27 14 ENE 1016,9 64 0 0,0
20.09.2020 22:00:00 14,7 4,4 13,2 17,5 18,3 14,5 13 7 32 17 ENE 1017,0 65 0 0,0
20.09.2020 21:00:00 15,1 3,7 13,7 18,7 18,2 14,5 18 10 31 17 NE 1016,6 60 0 0,0
20.09.2020 20:00:00 15,3 3,8 14,1 20,3 18,0 14,5 14 8 28 15 NE 1016,1 58 9 0,0
20.09.2020 19:00:00 17,1 4,9 17,2 22,4 17,7 14,5 11 6 23 12 NE 1015,1 65 60 0,0
20.09.2020 18:00:00 19,1 5,2 21,3 24,0 17,2 14,5 12 6 26 14 NE 1014,4 64 60 0,0
20.09.2020 17:00:00 20,0 4,5 23,6 24,9 16,7 14,5 10 5 24 13 NE 1014,2 61 60 0,0
20.09.2020 16:00:00 19,8 3,7 25,9 24,8 16,3 14,5 9 5 26 14 NE 1014,4 70 60 0,0
20.09.2020 15:00:00 20,3 3,2 26,0 23,1 15,9 14,5 11 6 24 13 E 1014,4 45 60 0,0
20.09.2020 14:00:00 18,9 5,5 24,3 19,8 15,6 14,5 8 5 21 11 NE 1015,2 38 25 0,0

tt = temperature
td = dewpoint
tt 5cm = temperature 5cm
tt -5cm = temperature -5cm
tt -20cm = temperature -20cm
tt -100cm = temperature -100cm
ff = wind speed
fx = gusts
dd = wind direction
ppp = reduced air pressure
vv = visibility
sd = sunshine duration
rr = precipitation

Next stations